Marrakech, Morocco

10:12 AM WET on February 25, 2017 (GMT +0000)
Marrakech

Weather History for GMMX - June, 2012

Change the Weather History Date:

Wednesday, June 6, 2012

  Actual Average Record
Temperature  
Mean Temperature 82 °F -  
Max Temperature 99 °F 91 °F 105 °F (2001)
Min Temperature 65 °F 64 °F 39 °F (2005)
Cooling Degree Days 17    
Growing Degree Days 32 (Base 50)    
Moisture  
Dew Point 57 °F    
Average Humidity 42    
Maximum Humidity 68    
Minimum Humidity 14    
Precipitation  
Precipitation 0.00 in 0.01 in - ()
Sea Level Pressure  
Sea Level Pressure 29.90 in    
Wind  
Wind Speed 5 mph ()    
Max Wind Speed 13 mph    
Max Gust Speed 20 mph    
Visibility 6.0 miles    
Events      
Averages and records for this station are not official NWS values.
T = Trace of Precipitation, MM = Missing Value Source: Averaged Metar Reports

Daily Weather History Graph

Daily Weather History Graph

Search for Another Location

Airport or City:

Trip Planner

Search our weather history database for the weather conditions in past years. The results will help you decide how hot, cold, wet, or windy it might be!

Date:

Astronomy

Jun. 06, 2012 Rise Set
Actual Time 6:26 AM WEST 8:35 PM WEST
Civil Twilight 5:58 AM WEST 9:03 PM WEST
Nautical Twilight 5:24 AM WEST 9:37 PM WEST
Astronomical Twilight 4:48 AM WEST 10:13 PM WEST
Moon 10:42 PM WEST (6/6) 8:29 AM WEST (6/6)
Length of Visible Light 15h 04m
Length of Day
14h 08m
Waning Gibbous, 94% of the Moon is Illuminated
Jun 6
Waning Gibbous
Jun 11
Last Quarter
Jun 19
New
Jun 27
First Quarter
Jul 3
Full

Hourly Weather History & Observations

Time (WEST) Temp. Heat Index Dew Point Humidity Pressure Visibility Wind Dir Wind Speed Gust Speed Precip Events Conditions
12:00 AM 78.8 °F - 59.0 °F 51% 30.01 in 6.2 mi NE 9.2 mph - N/A   Mostly Cloudy
12:30 AM 77.0 °F - 57.2 °F 50% 30.01 in 6.2 mi NNE 5.8 mph - N/A   Mostly Cloudy
1:00 AM 76 °F - 56 °F 40% 29.94 in 6 mi NNE 5.8 mph - -   Mostly Cloudy
1:00 AM 77.0 °F - 57.2 °F 50% 30.01 in 6.2 mi NNE 5.8 mph - N/A   Mostly Cloudy
1:30 AM 75.2 °F - 57.2 °F 53% 30.01 in 6.2 mi NNE 4.6 mph - N/A   Mostly Cloudy
2:00 AM 75.2 °F - 55.4 °F 50% 29.98 in 6.2 mi North 4.6 mph - N/A   Mostly Cloudy
2:30 AM 75.2 °F - 55.4 °F 50% 29.98 in 6.2 mi North 5.8 mph - N/A   Mostly Cloudy
3:00 AM 73.4 °F - 55.4 °F 53% 29.98 in 6.2 mi NNE 4.6 mph - N/A   Mostly Cloudy
3:30 AM 73.4 °F - 55.4 °F 53% 29.95 in 6.2 mi NE 5.8 mph - N/A   Mostly Cloudy
4:00 AM 73 °F - 55 °F 44% 29.90 in 6 mi NNE 3.5 mph - -   Mostly Cloudy
4:00 AM 73.4 °F - 55.4 °F 53% 29.95 in 6.2 mi NNE 4.6 mph - N/A   Mostly Cloudy
4:30 AM 73.4 °F - 55.4 °F 53% 29.95 in 6.2 mi NNE 3.5 mph - N/A   Mostly Cloudy
5:00 AM 71.6 °F - 55.4 °F 57% 29.95 in 6.2 mi SW 3.5 mph - N/A   Mostly Cloudy
5:30 AM 69.8 °F - 55.4 °F 60% 29.95 in 6.2 mi WSW 4.6 mph - N/A   Mostly Cloudy
6:00 AM 68.0 °F - 55.4 °F 64% 29.95 in 6.2 mi WSW 2.3 mph - N/A   Mostly Cloudy
6:30 AM 68.0 °F - 57.2 °F 68% 29.95 in 6.2 mi WSW 4.6 mph - N/A   Scattered Clouds
7:00 AM 69 °F - 57 °F 56% 29.91 in 6 mi WSW 4.6 mph - -   Partly Cloudy
7:00 AM 68.0 °F - 57.2 °F 68% 29.95 in 6.2 mi WSW 4.6 mph - N/A   Scattered Clouds
7:30 AM 68.0 °F - 57.2 °F 68% 29.95 in 6.2 mi SW 4.6 mph - N/A   Scattered Clouds
8:00 AM 69.8 °F - 55.4 °F 60% 29.95 in 6.2 mi SW 3.5 mph - N/A   Partly Cloudy
8:30 AM 73.4 °F - 57.2 °F 57% 29.95 in 6.2 mi Variable 2.3 mph - N/A   Partly Cloudy
9:00 AM 75.2 °F - 57.2 °F 53% 29.95 in 6.2 mi Variable 1.2 mph - N/A   Partly Cloudy
9:30 AM 77.0 °F - 57.2 °F 50% 29.95 in 5.6 mi North 3.5 mph - N/A   Partly Cloudy
10:00 AM 79 °F - 57 °F 37% 29.86 in 6 mi NNE 4.6 mph - -   Scattered Clouds
10:00 AM 78.8 °F - 57.2 °F 47% 29.95 in 6.2 mi NE 4.6 mph - N/A   Partly Cloudy
10:30 AM 80.6 °F 80.8 °F 57.2 °F 45% 29.95 in 6.2 mi Variable 4.6 mph - N/A   Partly Cloudy
11:00 AM 82.4 °F 82.0 °F 57.2 °F 42% 29.95 in 6.2 mi NNE 4.6 mph - N/A   Partly Cloudy
11:30 AM 84.2 °F 83.8 °F 59.0 °F 42% 29.92 in 6.2 mi NNE 6.9 mph - N/A   Partly Cloudy
12:00 PM 86.0 °F 84.9 °F 57.2 °F 37% 29.92 in 6.2 mi NE 4.6 mph - N/A   Partly Cloudy
12:30 PM 87.8 °F 86.5 °F 57.2 °F 35% 29.92 in 6.2 mi NNW 3.5 mph - N/A   Partly Cloudy
1:00 PM 90 °F - 58 °F 24% 29.78 in 6 mi NNW 4.6 mph - -   Scattered Clouds
1:00 PM 89.6 °F 88.1 °F 57.2 °F 33% 29.89 in 6.2 mi North 4.6 mph - N/A   Partly Cloudy
1:30 PM 91.4 °F 89.9 °F 57.2 °F 31% 29.89 in 6.2 mi WNW 5.8 mph - N/A   Partly Cloudy
2:00 PM 93.2 °F 91.9 °F 57.2 °F 30% 29.86 in 6.2 mi NW 6.9 mph - N/A   Partly Cloudy
2:30 PM 96.8 °F 95.1 °F 55.4 °F 25% 29.86 in 6.2 mi NW 6.9 mph - N/A   Partly Cloudy
3:00 PM 96.8 °F 94.4 °F 53.6 °F 23% 29.83 in 6.2 mi WNW 6.9 mph - N/A   Partly Cloudy
3:30 PM 98.6 °F 97.2 °F 55.4 °F 24% 29.86 in 6.2 mi SW 11.5 mph - N/A   Partly Cloudy
4:00 PM 96 °F - 57 °F 18% 29.72 in 6 mi WSW 11.5 mph - -   Partly Cloudy
4:00 PM 96.8 °F 95.8 °F 57.2 °F 27% 29.86 in 6.2 mi WSW 11.5 mph - N/A   Partly Cloudy
4:30 PM 96.8 °F 95.1 °F 55.4 °F 25% 29.86 in 6.2 mi South 9.2 mph - N/A   Partly Cloudy
5:00 PM 95.0 °F 93.7 °F 57.2 °F 28% 29.86 in 6.2 mi WSW 8.1 mph - N/A   Partly Cloudy
5:30 PM 98.6 °F - 41.0 °F 14% 29.80 in 5.0 mi West 12.7 mph - N/A   Scattered Clouds
6:00 PM 96.8 °F - 50.0 °F 20% 29.80 in 6.2 mi NNW 9.2 mph - N/A   Scattered Clouds
6:30 PM 98.6 °F - 46.4 °F 17% 29.80 in 6.2 mi NW 5.8 mph - N/A   Scattered Clouds
7:00 PM 97 °F - 56 °F 16% 29.68 in 6 mi NW 9.2 mph - -   Partly Cloudy
7:00 PM 98.6 °F 96.4 °F 53.6 °F 22% 29.80 in 6.2 mi NW 6.9 mph 19.6 mph N/A   Scattered Clouds
7:30 PM 93.2 °F 92.6 °F 59.0 °F 32% 29.83 in 5.0 mi North 12.7 mph - N/A   Scattered Clouds
8:00 PM 89.6 °F 88.9 °F 59.0 °F 36% 29.83 in 6.2 mi North 10.4 mph - N/A   Scattered Clouds
8:30 PM 87.8 °F 87.6 °F 60.8 °F 40% 29.86 in 5.6 mi NNE 5.8 mph - N/A   Scattered Clouds
9:00 PM 86.0 °F 86.1 °F 60.8 °F 43% 29.89 in 5.6 mi NNE 8.1 mph - N/A   Scattered Clouds
9:30 PM 82.4 °F 82.9 °F 60.8 °F 48% 29.89 in 5.0 mi North 9.2 mph - N/A   Unknown
10:00 PM 82 °F - 61 °F 38% 29.82 in 4 mi NNW 3.5 mph - -   Partly Cloudy
10:00 PM 82.4 °F 82.9 °F 60.8 °F 48% 29.92 in 4.3 mi North 4.6 mph - N/A   Scattered Clouds
10:30 PM 80.6 °F 81.5 °F 60.8 °F 51% 29.92 in 5.0 mi NNE 6.9 mph - N/A   Scattered Clouds
11:00 PM 80.6 °F 81.5 °F 60.8 °F 51% 29.92 in 5.0 mi North 6.9 mph - N/A   Unknown
11:30 PM 78.8 °F - 60.8 °F 54% 29.92 in 5.6 mi NW 3.5 mph - N/A   Unknown